TIMESTAMP,CO2_1_1_1,H2O_1_1_1,TAU_1_1_1,TAU_SSITC_TEST_1_1_1,H_1_1_1,H_SSITC_TEST_1_1_1,LE_1_1_1,LE_SSITC_TEST_1_1_1,FC_1_1_1,FC_SSITC_TEST_1_1_1,WD_0_0_1,WS_0_0_1,WS_MAX_0_0_1,U_SIGMA_0_0_1,V_SIGMA_0_0_1,W_SIGMA_0_0_1,USTAR_0_0_1,MO_LENGTH_0_0_1,ZL_0_0_1,FETCH_MAX_0_0_1,FETCH_70_0_0_1,FETCH_80_0_0_1,FETCH_90_0_0_1,PA_0_0_1,RH_0_0_1,TA_0_0_1,VPD_0_0_1,T_SONIC_0_0_1,T_SONIC_SIGMA_0_0_1
[yyyymmddHHMMSS],[mmolCO2 mol-1],[mmolH2O mol-1],[kg m-1 s-2],[#],[W m-2],[#],[W m-2],[#],[umolCO2 m-2 s-1],[#],[Decimal degrees],[m s-1],[m s-1],[m s-1],[m s-1],[m s-1],[m s-1],[m],[#],[m],[m],[m],[m],[kPa],[%],[deg C],[hPa],[deg C],[deg C]
20221209003000,427.56721285104163,3.2539924436996386,0.10605777353945389,0,-41.624211452868877,0,-0.72484953249481954,0,-2.9844945562973586E-002,2,148.74424811191642,2.4720863776061344,4.6552608036632455,0.58685058281637148,0.53953720932627092,0.36921117038116313,0.29257943247402857,50.474884853499120,0.37642483098567869,103.95133442013520,190.05619289768191,227.44872186954930,284.73880973348656,94.868841051850666,83.682758620689654,-6.7148275862069227,0.60209824897526287,-6.2997630001524954,0.22207438233052779
20221209010000,427.81071455356312,3.2710985540282334,8.5109133708281048E-002,0,-35.691341720915055,0,-1.1238044626671368,0,2.5391907510753766E-003,2,143.17976483117400,2.3818257106780649,4.1843739861982971,0.56683795164582207,0.45300098775479658,0.30695102486316067,0.26208923045093763,42.315001448776783,0.44901333686588452,110.34660353195224,201.74878450055272,241.44176768862098,302.25644262374215,94.874515118509635,84.126666666666665,-6.7146666666666874,0.58572550127363288,-6.2895344006732330,0.25218512449221564
20221209013000,427.79096643510917,3.3280502888010917,0.11484235281508590,1,-50.973684910140129,0,-3.7887703013834542,0,0.26214113654600413,1,146.66897270457835,2.7953907729730720,4.8544636623968378,0.58057414731015500,0.47290585154094300,0.32984036780008691,0.30460169515163521,46.509503751402413,0.40851865677941335,117.48913535610599,214.80761066879339,257.06984734126348,321.82094385345556,94.867205325737842,83.996666666666670,-6.4706666666666592,0.60168732909512013,-6.0316656901041483,0.34708365063727187
20221209020000,427.60250866912827,3.3608375974596560,0.10504183984997709,1,-47.383697178750346,0,-2.3277334547303639,0,0.16809806415840725,0,152.30572920716187,2.8700616793519598,4.4997374256082754,0.53823569211159661,0.45998613526127713,0.32523901016581114,0.29136452410231650,43.788833346464557,0.43390057573968299,114.66797229231472,209.64962482437241,250.89705565345793,314.09334115043146,94.863812333333343,84.313333333333333,-6.3923333333333403,0.59333366276823030,-5.9400324401855187,0.29586713431960598
20221209023000,427.54308557901243,3.3565961845579961,9.9476331665441106E-002,1,-42.483921639531019,0,-1.5721883219399473,0,0.16215475677144370,0,142.70138074019172,2.4520872652415115,4.2011359035981508,0.54850662670349337,0.45265966548315872,0.31550289443081736,0.28344169871970665,44.964664615998593,0.42255402463826519,114.92730300854036,210.12376408292266,251.46447924908625,314.80368815922481,94.870978619140629,85.290000000000006,-6.5579999999999927,0.54936819723896013,-6.1385841115315998,0.27506576137572336
20221209030000,427.62976743844860,3.3707298151178700,8.8841026372188214E-002,0,-35.929335728877980,0,-1.4288238427929425,0,-1.1370013187943562E-002,2,137.99046949833777,2.7111013462412989,4.8192309705422192,0.58000950874222901,0.51698644682395278,0.32362405454112880,0.26791208400786348,44.896676488638363,0.42319390845797183,107.65051360056391,196.81947223219396,235.54263986731561,294.87143460744051,94.864986990524997,85.106666666666669,-6.4759999999999991,0.55972499608915205,-6.0372248368443593,0.27959557756121972
20221209033000,427.95924120511586,3.3824637045261245,0.21762871974964659,1,-66.087878206113118,0,-2.0973117385191808,0,8.6123924385330966E-002,0,136.75138897430259,2.8904058749660630,5.9199314978386788,0.75496129772043574,0.65053224639590324,0.48530228965806815,0.41933724873703782,93.588619912577684,0.20301613612582534,111.40271642418598,203.67969569748706,243.75257522975042,305.14929945483806,94.854972027777777,85.426666666666662,-6.4809999999999945,0.54748870345663192,-6.0617101084391152,0.24423948736152298
20221209040000,427.92755844789525,3.4249460016655169,0.21169268976022365,0,-56.690026823245752,0,-1.7132309728612880,0,0.18811410978704060,0,134.27233425857671,2.9629291210657289,5.5509419582076305,0.77775093763797165,0.63139419552913389,0.45734979351560812,0.41380863834975695,104.82165297827257,0.18126025930862127,115.58347620931481,211.32345796964705,252.90020642540128,316.60104821438671,94.824587599392373,85.113333333333330,-6.2743333333333453,0.56818666290361419,-5.8667994995116715,0.26986535657378669
20221209043000,428.21450263479630,3.3300427394645555,0.21885945784139932,0,-61.531269595413193,0,-1.3917076388789262,1,0.47479109484985371,1,127.96755619738364,3.1239954417025619,6.1127395795564974,0.81251843641051613,0.66584969320109066,0.45962156834475965,0.42034179588304893,101.20703456880989,0.18773398589286841,116.57801060904137,213.14178404282538,255.07627832803661,319.32523201440051,94.808925801432295,86.363333333333330,-6.8326666666666824,0.49864829825104667,-6.3918659540811973,0.36029111233721739
20221209050000,427.80480166077211,3.3779838648402123,0.24399949603132220,0,-66.013525402995072,0,-1.4442946184883563,0,0.33229983858076073,0,130.41050822002029,3.1161947042015918,6.1030315984263916,0.85894728472250548,0.70660908811691991,0.52016937380599204,0.44395383954612677,111.16026412116034,0.17092438696700776,110.30858917507149,201.67928213211741,241.35859110475650,302.15231541083631,94.829114373263891,86.266666666666666,-6.6293333333333067,0.51009220717177306,-6.2249034406873420,0.25345794030970681
20221209053000,427.96916066710497,3.3462523041034129,0.25122393097915280,0,-70.194504341641590,0,-1.8797136872948794,1,0.56976189179389036,0,129.86605346568291,2.9975803972972042,5.9729193647475052,0.87108675928610935,0.74834363480310540,0.53189956898983715,0.45025367182689030,109.07533737770837,0.17419153088847575,109.58648563844909,200.35904656406086,239.77860632266186,300.17436195146854,94.857194011501733,86.696666666666658,-6.8129999999999882,0.48719577027122113,-6.4232461836072616,0.25760508052069547
20221209060000,428.21968942730877,3.3237054333753275,0.20961477949298621,0,-53.207552772145938,0,-0.93057218375761142,0,0.29557352844991308,0,130.68346042209188,2.9150972593780264,7.1433597368009938,0.87063559400674895,0.72865617853227560,0.51059014250700174,0.41109436860335974,109.52959473524305,0.17346909797235302,105.28104356116955,192.48732529647182,230.35816643102225,288.38108907719953,94.864766544704864,87.569999999999993,-7.0299999999999727,0.44767178930617491,-6.6168286904228353,0.23151944602903707
20221209063000,428.49392541415460,3.2754648686604448,0.25728777715931878,0,-47.295478065111048,0,0.60547812625690756,2,0.28854372896703562,1,124.18079395967052,2.6723556609814088,5.6112819261206930,0.89769820942642298,0.71058413955603317,0.50383567269455154,0.45519156361663754,167.27479418685036,0.11358555299596722,115.44606452000627,211.07222557638053,252.59954541630984,316.22465630873745,94.862289913411459,88.340000000000003,-7.3333333333333144,0.41022694662838549,-6.9318385094535984,0.28763705282667507
20221209070000,428.37664809488490,3.3118079648168703,0.30601759864766975,0,-55.889466043272186,0,0.26224124174430996,2,0.77462256860882606,0,137.06202330088382,2.7733288425249345,6.0140994762219000,0.99382467395859631,0.81576682132848299,0.57154184350994908,0.49641951455714284,183.61526045903994,0.10347723796213787,111.86534109504446,204.52552114238750,244.76481226046334,306.41650010087494,94.869066054470494,89.296666666666667,-7.3290000000000077,0.37669517203010461,-6.9401021703083643,0.22902092383863668
20221209073000,428.52279898693087,3.2716160728589614,0.19990733949855355,0,-60.675385261499983,0,-3.4922298643604961,2,1.0407719447884560,1,120.79523127705011,2.7294543995373748,5.4428296585106919,0.77819758507195602,0.71751168604554016,0.47510771025652443,0.40099424041055337,89.125646017982589,0.21318218547517101,109.32808597645898,199.88660956959765,239.21321990238141,299.46656524447076,94.842430167344375,90.810000000000002,-7.7076666666666824,0.31409666239227252,-7.3150509277153901,0.33911325750726901
20221209080000,428.40223540968248,3.2661355994719350,0.16003771161611596,0,-39.082231596124281,0,0.15091571823306349,2,0.81986951368168681,0,118.63760186804554,2.7204531168005022,5.6325505954160215,0.77071104780499644,0.56398738786638036,0.41519148741446654,0.35861986593442735,98.971491522769071,0.19197447373649937,111.36882107789286,203.61772419409701,243.67841116793537,305.05645485007335,94.838449618706605,92.469999999999999,-7.9633333333333098,0.25230697390650336,-7.5665257161458612,0.22787880290641571
20221209083000,427.64010509976691,3.3652683696911461,0.22621988822379704,0,-46.186364966171304,0,0.83543482841929440,2,0.83629286350013909,0,120.25800693741834,3.0404352401200461,6.5599239603414885,0.81873486494952619,0.70917725026704137,0.49497038479117855,0.42662972968368990,141.01062451520482,0.13474162011069796,111.18147226844289,203.27519081858435,243.26848620169150,304.54327743580205,94.843858156765677,92.903333333333336,-7.6373333333333449,0.24387568673100760,-7.2707683354248616,0.26211548452405697
20221209090000,427.04427464954114,3.4657372889539575,0.35503427088939238,0,-77.254623255585543,0,0.45219141811804192,2,1.3803965947295826,0,124.77851399996797,3.1294496342528109,6.3579793679073449,1.0299959778697607,0.83385760424537436,0.59679675228012885,0.53490792691203159,166.14726042260077,0.11435638452101410,114.71414327965742,209.73404011471601,250.99807919603325,314.21981063784608,94.831545215060757,92.796666666666667,-7.2436666666666838,0.25519142755920998,-6.8967407124837337,0.32805893337484182
20221209093000,426.66832153143349,3.5067871008051981,0.30510600798921056,0,-51.246390919937021,0,2.8140812314820050,1,0.70694074389066641,1,120.32587922407069,3.3344961461873388,6.8319696317680840,0.95966187675410641,0.86538973845482048,0.62560305676654371,0.49605568100672354,199.71635533927974,9.5134922564166807E-002,104.00163151663168,190.14815203151366,227.55877346605538,284.87658127311465,94.801511412760419,93.079999999999998,-7.1346666666666465,0.24722413203709551,-6.8601481535170024,0.21448206267791398
20221209100000,426.55731227298168,3.5510098237746504,0.35920202503798215,0,-66.786419772285512,0,-2.9599235378275934,1,1.4021405492954890,0,118.19542662590410,3.4949394030138419,7.3220922355736127,1.0388626718142371,0.82647484484132572,0.60411443498371875,0.53835694402014744,195.85398366175059,9.7011046927765993E-002,114.18676906683166,208.76983185629211,249.84416817292524,312.77525096497806,94.777277086805555,93.903333333333336,-7.0896666666666874,0.21856671366310310,-6.8746136423746975,0.22950473649601180
20221209103000,426.56543705039593,3.5495835692455628,0.22808092834573862,0,-46.558422856999840,0,-3.0889976859323416,1,0.71159688678508792,0,112.23562713817874,2.8987149888763222,7.0167935244659922,0.91989215358602106,0.78024580535983423,0.50771810036114817,0.42913169528312417,142.20520903106066,0.13360973293073949,109.45339992439575,200.11572343325989,239.48741068068784,299.80981956224900,94.695609122829865,94.156666666666666,-7.1410000000000196,0.20865717000142070,-6.9906487113104845,0.28889612525338487
20221209110000,426.68093557905513,3.5022915168157684,0.28246608103518517,0,-45.498204367258325,0,-0.18386639705460517,2,0.64135749501541650,0,107.75084257704994,3.1192679084091526,5.8381949422261910,0.90330155546685376,0.74346027214278543,0.54084599259911270,0.47776616101272135,200.57113383409066,9.4729483933199007E-002,113.38831880124216,207.31001011814337,248.09713439603553,310.58817198688172,94.536548266927099,94.293333333333337,-7.3553333333333626,0.20043337052430957,-7.1986225153605119,0.20247513252165483
20221209113000,426.56169563767105,3.5267252919289400,0.24619227808860558,0,-32.359499692735781,0,4.7948856216379766E-002,2,0.39357573443980104,0,113.20660336815874,2.7577286330574413,6.3553391084517958,0.94381717191823156,0.79115347376090683,0.56174505249084195,0.44639881634907702,229.83332242237717,8.2668604359652731E-002,104.18421467399089,190.48197227507765,227.95827103872162,285.37670482798626,94.422908030815961,94.030000000000001,-7.2446666666666601,0.21148198512147701,-7.1307443144056037,0.15020707127848604
20221209120000,426.47793870901336,3.5380241099076688,0.37824375046781589,0,-39.791915198135570,0,-0.98404012532977425,2,0.74693502668458700,0,104.45361888886613,2.5926983865234292,6.9900107082944096,1.0857304615155656,0.86186965276559024,0.61535862795664442,0.55372169244410074,356.36498000874286,5.3316125505749372E-002,115.07619527916739,210.39598664038303,251.79026012375502,315.21152715574516,94.291666203559032,94.049999999999997,-7.2239999999999895,0.21110996965278958,-7.1212398961384906,0.15075837018993846
20221209123000,426.14726068361949,3.6507352526267463,0.50521696455527976,0,-58.759871652244193,0,-1.4733362586942498,2,0.52537492153422150,1,95.438121861912535,2.9890667162774927,7.4018621928194355,1.2317625332424651,1.0259624136101204,0.74335367451775114,0.64075416478368152,373.67199851540988,5.0846732095224036E-002,111.18639669178269,203.28419423501376,243.27926099165288,304.55676619425066,94.192116094401044,94.163333333333341,-6.8463333333333480,0.21320355405510952,-6.7219209281073518,0.16994405291892237
20221209130000,426.11444409975286,3.6470127449934138,0.64601684589065367,0,-49.578255981409569,0,-6.0650315487589435,1,1.6107565572060389,1,103.86077791645832,3.2207269965573126,8.3854105209767837,1.3969035279293101,1.0836109418595352,0.83126573660347169,0.72454278979338360,640.39262582429660,2.9669298542505385E-002,112.17968779847671,205.10024717200062,245.45261253083410,307.27754442202996,94.206852009381251,93.870000000000005,-6.8170000000000073,0.22442431522577011,-6.6716718975312688,0.18753099394363359
20221209133000,425.25637371082814,3.8280726714312063,0.83197652601164951,0,-20.699897484896191,0,-0.55851003481368322,2,1.1451306027883974,0,112.08299367214283,3.5523121806131956,10.794033344537972,1.7855356760374457,1.3060673610111995,0.96720371398887961,0.82296949020028443,2248.4184520735112,8.4503843056785242E-003,110.03922509454132,201.18679868364106,240.76921419895814,301.41448546278463,94.247462105251728,94.350000000000009,-6.2463333333333253,0.21610900346626011,-6.1142386067708685,0.18147912552210457
20221209140000,424.51575136768685,3.9526072300399919,1.2527046782652811,0,-20.177699718037122,0,-4.7764632896816916,1,1.0613213050471810,0,114.94589612675767,3.8959275082953826,12.258761400598097,1.8990204428105588,1.5128536785487467,1.1225143472791779,1.0100283086962112,4267.9927239609142,4.4517414224565580E-003,115.07161710567736,210.38761627910969,251.78024293913091,315.19898682927817,94.366075181423597,94.439999999999998,-5.8233333333333235,0.21965184000554644,-5.6947057707044451,0.10904725711329838
20221209143000,424.52575472746918,3.9714881710197942,0.96967104398671089,0,1.9018419332665383E-002,2,0.63914434164261513,2,0.47584642976311253,1,110.21942726212934,3.9809928640454721,11.061304761552531,1.8698803778430511,1.4452690406916751,1.0333654280566233,0.88831871865440315,-3082955.7640631152,-6.1629168415181405E-006,110.94476343704289,202.84241158037545,242.75055998691522,303.89489527426264,94.469237021701389,94.256666666666661,-5.7210000000000036,0.22867153446517136,-5.5951827367146620,5.3121106007419351E-002
20221209150000,424.54126975678730,4.0077896448521271,1.0981097774746622,0,9.0533225258159611,1,3.2737478548988319,2,0.47461476510747125,0,104.75160459841462,3.6780764384163165,9.8615277050688857,1.8654590559973099,1.5815705655166639,1.1215141261533428,0.94523070474365112,-7806.0540689690952,-2.4340082495110404E-003,109.20470697957691,199.66103341358442,238.94326285658772,299.12861105740546,94.526466682291669,94.403333333333336,-5.6139999999999759,0.22465543764408893,-5.5023244917127840,7.4149659209887253E-002
20221209153000,424.63550475361200,4.0268168742721340,1.2634376168780597,0,13.058518381419692,0,1.1402894304484794,0,0.23295600545379300,0,99.005357425396696,4.0985685155841241,11.775903930718181,2.0497320449561336,1.4869122438093390,1.0870406900731373,1.0138948097468665,-6681.1044976693638,-2.8438411652785792E-003,118.42750478432770,216.52324926116191,259.12302855611807,324.39128309510738,94.567791069661453,94.056666666666672,-5.4976666666666461,0.24069225122834723,-5.3579782384236410,8.0100832233010802E-002
20221209160000,424.65983520892303,4.0838503026458994,1.3543620374975052,0,15.053353970775722,0,-1.0335712128412087,0,0.33896995079940279,0,98.749555929421632,4.7195136196146716,12.246761486380553,2.0730765331890719,1.5550564930326554,1.2338526503432192,1.0497364999792922,-6436.0741785516711,-2.9521101641926113E-003,110.02933792095841,201.16872177697920,240.74758075859026,301.38740296256151,94.642551586154525,94.010000000000005,-5.2956666666666479,0.24633464925196735,-5.1416183314852901,0.10329723897139123
20221209163000,424.50213405457993,4.1899070489960559,1.3314883268713547,0,10.825348452753028,1,-5.2498308019627027,1,0.62541448317836779,0,105.42183947135958,4.1396591230953126,11.400580131899062,1.9677522112129999,1.6812166265135680,1.2436210877960998,1.0410563324992237,-8735.4728969083644,-2.1750396600422662E-003,108.61350326809649,198.58012447424537,237.64969092419403,297.50921249887813,94.729016052951394,94.023333333333341,-4.9473333333333471,0.25236393182988420,-4.7533871544731596,0.14230282903693348
20221209170000,424.43849646338424,4.0999412806585243,1.1840163717939596,0,53.538440963630826,0,2.4718408840499189,2,0.21408358792578080,1,102.00260155113057,4.4083109473245790,12.199167045778944,1.9972684229943769,1.5887127896807507,1.1726231836148453,0.98210770430334104,-1483.4058181679868,-1.2808362868270997E-002,108.65642533453622,198.65859970098816,237.74360572775259,297.62678268859747,94.774060456163198,89.626666666666665,-4.5946666666666829,0.44984685925935708,-4.4577044567531630,0.11706651391972142
20221209173000,424.39714542513099,4.0465131527899434,0.96826980596960222,0,71.880746568031128,0,3.0855214677562341,1,0.47640671732445478,0,99.131123971235127,3.8555736042136526,10.455696652320725,1.7961653732050005,1.3720367081033926,1.0755219083799816,0.88871777612813385,-818.70320258237939,-2.3207433341007586E-002,107.49062406536913,196.52714316770610,235.19279663900855,294.43347239950771,94.774418825737840,86.093333333333334,-4.2350000000000136,0.61964377000695603,-4.1350688671535636,0.14686157179555936
20221209180000,424.13816770788839,4.0595149674515563,1.2283327885279327,0,107.38557472115825,0,12.042406592941344,0,0.26697964972535237,0,97.273446693283987,4.0016792977633848,11.298579730595694,1.8562424966320357,1.2923430851232223,1.1150350746110347,1.0016933110706721,-784.65979028812103,-2.4214315854038278E-002,114.92430756859129,210.11828746334919,251.45792513420497,314.79548318513298,94.766140267144110,84.053333333333327,-3.8743333333333112,0.73006040334391342,-3.7987995936075549,0.21947508097102425
20221209183000,424.18837851185077,4.0519953682034977,0.79709025666018174,0,54.650593768996657,0,5.7479943163700788,0,0.41718616378918638,0,95.916280021456188,3.3938236826121368,9.0059432629626848,1.5727442057291727,1.2740609030100751,0.98984735810424540,0.80702267682960016,-806.22440817839436,-2.3566639520290786E-002,106.34299998872407,194.42892033967257,232.68175980744019,291.28995225685424,94.757248364149305,83.613333333333330,-3.8303333333333285,0.75268444760215858,-3.6764998143513594,0.14379386558011517
20221209190000,423.99329767336405,4.0805610502252527,0.52232068090232076,0,96.425549044531380,0,9.5474823626084220,0,0.79305503058904658,0,106.58359998287418,3.1296092710680541,8.1124476731705020,1.3116213156224530,1.0803897904724851,0.86234083470140144,0.65378915015344075,-242.90952890678292,-7.8218421835939148E-002,100.33718338036820,183.44837212263411,219.54084806279153,274.83909010986849,94.734702625595560,81.996666666666670,-3.4789999999999850,0.84898922827114742,-3.4335121354018838,0.26713600587503245
20221209193000,423.79052184730062,4.1160055859904547,0.53309954989169650,0,109.83334837582379,0,10.217319041453298,0,0.35388867519000788,1,96.004408746508716,2.6139094222879087,7.2328489625651136,1.2989347420878827,1.1729466563332207,0.77907269912370614,0.66078531388235562,-220.14637603548849,-8.6306212903259974E-002,109.75917067861367,200.67476989255047,240.15644651000068,300.64737302986907,94.715678906901047,81.620000000000005,-3.3043333333333180,0.87813892403295257,-3.2411112323336511,0.23367660147073491
20221209200000,423.80620675450314,4.1248250638921764,0.40270963412385186,0,58.875459158914808,0,4.6050106469771217,0,0.64736700429844274,0,77.517539825268074,3.1167095014072652,7.6874042295572860,1.3383856463590005,0.95918552277544245,0.75567963356871670,0.57435737621348759,-269.66502239341185,-7.0457784370273543E-002,100.53805704973144,183.81563325560103,219.98036583915078,275.38931421079360,94.699531674479161,81.840000000000003,-3.3140000000000214,0.86700193873742193,-3.1701131591796639,0.17188955857300464
20221209203000,423.74313291938881,4.1465852309796647,0.43043761028305288,0,39.203675710714414,0,9.0841113188010816,1,4.2501711913990353E-002,2,95.410869388458664,2.4698645747864005,7.5421297145828490,1.1921755163429628,0.91414061592917217,0.65033445046348892,0.59363750409419647,-447.26815292691640,-4.2480109249147906E-002,116.40256640965134,212.82101609128293,254.69240101531827,318.84466317141619,94.735322793323590,82.606666666666669,-3.3633333333333439,0.82734517246591910,-3.1180672270488685,0.14089296507690227
20221209210000,424.00041981774893,4.1636303207721657,0.43949609966492176,0,47.253214480723216,0,2.6876695232976116,0,0.60999841981668579,0,106.82071963155964,2.6877136383556950,6.8430363610742448,1.1593646889814995,0.91693174635683161,0.68856522738739856,0.59973001170924556,-382.65300044967961,-4.9653341219517172E-002,112.11493154552082,204.98185208864965,245.31092385458922,307.10016701276135,94.746796669704850,83.443333333333328,-3.4416666666666629,0.78295073853483588,-3.1527282579210123,0.16177517162240446
20221209213000,423.97639686759095,4.1980663045234436,0.45924883028132385,0,11.664364269573635,0,1.2029102964291234,2,0.34920679458754467,0,77.462646119625688,2.6601822134767632,7.0505470392272827,1.2018727862413277,0.92571847175636779,0.67589776471577501,0.61285771918119802,-1654.2708419747860,-1.1485422772318678E-002,115.78113966499441,211.68484980815518,253.33270015533205,317.14247904268706,94.752288123480909,85.183333333333337,-3.6066666666666833,0.69207212807041119,-3.2603686879475617,6.4807618798778971E-002
20221209220000,423.95438389231458,4.1839636897293078,0.34642881404301423,0,2.6317216020267749,1,1.0116749387444772,2,0.44171432475634703,0,78.438428632737015,2.7259615382927107,6.2008403964969556,1.0251285532593384,0.87660280788332401,0.61788496038901997,0.53207363399243091,-4798.9932679084286,-3.9591637119092840E-003,111.09798733145841,203.12255372762169,243.08581858786621,304.31459925942045,94.779122542751736,85.780000000000001,-3.7409999999999854,0.65755278930941241,-3.3920567211574735,8.0764996588026203E-002
20221209223000,423.93569905528369,4.1759440741014586,0.53527602444231859,0,-1.8010493387679121,1,2.8059365048329594,1,0.61651536357040515,0,89.266691124218980,2.4141778131114107,7.3272845046518116,1.2302167567939619,1.0421325340774703,0.69508845442396716,0.66111673027342821,13454.568520126913,1.4121597412490475E-003,120.29438550677338,219.93650263286057,263.20782108496627,329.50495862211062,94.805814986111116,86.549999999999997,-3.8820000000000050,0.61540545440385530,-3.5281247804429654,4.2544981665139536E-002